Hourly Data Report for October 13, 2016

All times are specified in Local Standard Time (LST). Add 1 hour to adjust for Daylight Saving Time where and when it is observed.

BATHURST A
NEW BRUNSWICK

47°37'47.000" N
65°44'20.000" W
58.80 m
8100505
71574
ZBF

Download Data

Hourly Data (October 2016)
Hourly Data Report for October 13, 2016
Temp Definition
°C
Dew Point Temp Definition
°C
Rel Hum Definition
%
Wind Dir Definition
10's deg

Wind Spd Definition
km/h
Visibility Definition
km
Stn Press Definition
kPa
Hmdx Definition


Wind Chill Definition


Weather Definition


TIME
00:00 Legend Double Dagger 10.4 4.8 68 19 13 24.1 101.42     LegendNANA
01:00 Legend Double Dagger 9.6 4.2 69 18 10 24.1 101.35     LegendNANA
02:00 Legend Double Dagger 8.6 3.5 70 19 9 24.1 101.32     Clear
03:00 Legend Double Dagger 7.5 3.0 73 18 8 24.1 101.27     LegendNANA
04:00 Legend Double Dagger 7.2 2.9 74 20 9 24.1 101.24     LegendNANA
05:00 Legend Double Dagger 6.5 3.1 79 18 13 24.1 101.22     Clear
06:00 Legend Double Dagger 6.6 4.3 85 20 11 24.1 101.22     LegendNANA
07:00 Legend Double Dagger 7.4 5.2 86 19 16 24.1 101.17     LegendNANA
08:00 Legend Double Dagger 8.4 5.4 81 21 13 24.1 101.17     Clear
09:00 Legend Double Dagger 10.9 6.5 74 21 22 24.1 101.12     LegendNANA
10:00 Legend Double Dagger 13.1 7.6 69 19 20 24.1 101.05     LegendNANA
11:00 Legend Double Dagger 14.3 7.9 65 21 17 24.1 100.95     Mainly Clear
12:00 Legend Double Dagger 16.4 7.7 56 18 23 24.1 100.84     LegendNANA
13:00 Legend Double Dagger 17.6 8.3 54 19 22 24.1 100.71     LegendNANA
14:00 Legend Double Dagger 15.3 9.3 67 19 25 24.1 100.66     Mostly Cloudy
15:00 Legend Double Dagger 15.4 10.0 70 20 25 24.1 100.60     LegendNANA
16:00 Legend Double Dagger 15.9 9.9 67 19 19 24.1 100.55     LegendNANA
17:00 Legend Double Dagger 16.2 10.4 68 20 13 24.1 100.51     Mostly Cloudy
18:00 Legend Double Dagger 15.6 10.4 71 20 13 24.1 100.52     LegendNANA
19:00 Legend Double Dagger 15.0 10.5 74 19 13 24.1 100.51     LegendNANA
20:00 Legend Double Dagger 14.6 10.7 77 20 10 24.1 100.46     Cloudy
21:00 Legend Double Dagger 14.4 10.8 79 21 16 24.1 100.43     LegendNANA
22:00 Legend Double Dagger 13.7 10.9 83 20 12 24.1 100.37     LegendNANA
23:00 Legend Double Dagger 13.7 11.1 84 21 16 24.1 100.33     Cloudy

Notes on Data Quality.

Legend

  • E = Estimated
  • M = Missing
  • NA = Not Available
  • ‡ = Partner data that is not subject to review by the National Climate Archives
Date modified: